World > North America > United States > Tennessee > Memphis   City of Memphis, Tennessee

Memphis, TN Hourly Weather Conditions

Feedback E-mail the Weather

Quick WX

Memphis, TN Weather Maps

°F °C°F °C
Memphis Weather Map
UTC Time: 2/5/2023, 16:54
Your Time:

Memphis, TN Regional Weather

Expires:202302051700;;845959
ASUS44 KMEG 051610
RWRTN 
TENNESSEE HOURLY STATE WEATHER ROUNDUP
NATIONAL WEATHER SERVICE MEMPHIS TN
1000 AM CST SUN FEB 05 2023


TNZ002-004-019-021-049-052-054-088>092-051700-
WEST TENNESSEE
  
CITY           SKY/WX    TMP DP  RH WIND       PRES   REMARKS
MEMPHIS INTL   SUNNY     54  40  59 SW16G25   30.20S                  
NWS MEMPHIS      N/A     51 N/A N/A MISG        N/A                   
JACKSON        SUNNY     54  37  52 SW14G22   30.19S                  
DYERSBURG      PTSUNNY   53  39  59 SW15G24   30.17R                  
SOMERVILLE     SUNNY     52  37  58 SW15G23   30.19S                  
COVINGTON      SUNNY     52  39  62 SW16G23   30.18R                  
UNION CITY     MOSUNNY   52  37  58 SW10      30.14R                  
BOLIVAR        SUNNY     52  37  58 SW12G21   30.19S                  
PARIS          SUNNY     52  36  54 SW17G25   30.14S                  
HUNTINGDON     SUNNY     54  36  50 SW13G18   30.15S                  
SELMER         SUNNY     48  36  61 SW6G18    30.21R                  
SAVANNAH       SUNNY     52  36  54 S12       30.22R                  
$$


SKY/WX - Weather  TMP - Temperature  DP - Dew Point  RH - Humidity
WIND - Wind Direction/Speed PRES - Barometric Pressure VSB - Visibility
WCI - Wind Chill Index E13G22 Wind - East Wind 13 mph/Gusts of 22 mph

Trending Headlines

Trending Entertainment Headlines

Memphis Radar Loop

Use the map search tool if you want to place a location marker on the radar map...

Memphis Quick Facts

National Two Day Weather Forecast


E-mail the Memphis Weather Forecast

Voice your opinion or tell us about page issues...